Philip, SD

4:42 AM MDT on September 29, 2016 (GMT -0600)
Philip

Weather History for KPHP - September, 2012

Change the Weather History Date:

Saturday, September 29, 2012

  Actual Average Record
Temperature  
Mean Temperature 66 °F 56 °F  
Max Temperature 86 °F 71 °F 91 °F (2007)
Min Temperature 45 °F 41 °F 20 °F (1984)
Degree Days  
Heating Degree Days 0 10  
Month to date heating degree days 83 151  
Since 1 July heating degree days 88 176  
Cooling Degree Days 1 1  
Month to date cooling degree days 90 79  
Year to date cooling degree days 1201 814  
Growing Degree Days 16 (Base 50)    
Moisture  
Dew Point 42 °F    
Average Humidity 45    
Maximum Humidity 66    
Minimum Humidity 23    
Precipitation  
Precipitation 0.00 in 0.05 in 1.70 in (2014)
Month to date precipitation T 1.44  
Year to date precipitation 5.99 14.82  
Sea Level Pressure  
Sea Level Pressure 29.96 in    
Wind  
Wind Speed 8 mph (SE)    
Max Wind Speed 23 mph    
Max Gust Speed 30 mph    
Visibility 10 miles    
Events      
T = Trace of Precipitation, MM = Missing Value Source: NWS Daily Summary

Daily Weather History Graph

Daily Weather History Graph

Search for Another Location

Airport or City:

Trip Planner

Search our weather history database for the weather conditions in past years. The results will help you decide how hot, cold, wet, or windy it might be!

Date:

Astronomy

Sep. 29, 2012 Rise Set
Actual Time 6:42 AM MDT 6:29 PM MDT
Civil Twilight 6:13 AM MDT 6:58 PM MDT
Nautical Twilight 5:40 AM MDT 7:32 PM MDT
Astronomical Twilight 5:05 AM MDT 8:06 PM MDT
Moon 6:01 PM MDT 6:16 AM MDT
Length of Visible Light 12h 45m
Length of Day
11h 47m
Full, 100% of the Moon is Illuminated
Sep 29
Full
Sep 29
Full
Oct 8
Last Quarter
Oct 15
New
Oct 21
First Quarter

Hourly Weather History & Observations

Time (MDT) Temp. Windchill Dew Point Humidity Pressure Visibility Wind Dir Wind Speed Gust Speed Precip Events Conditions
12:55 AM 57.9 °F - 39.0 °F 49% 30.02 in 10.0 mi Calm Calm - N/A   Clear
1:55 AM 53.1 °F - 37.9 °F 57% 30.03 in 10.0 mi ESE 3.5 mph - N/A   Clear
2:55 AM 51.1 °F - 37.0 °F 59% 30.02 in 10.0 mi East 3.5 mph - N/A   Clear
3:55 AM 48.0 °F - 36.0 °F 63% 30.02 in 10.0 mi East 4.6 mph - N/A   Clear
4:55 AM 48.9 °F - 37.0 °F 64% 30.02 in 10.0 mi East 4.6 mph - N/A   Clear
5:55 AM 46.0 °F 43.1 °F 36.0 °F 68% 30.03 in 10.0 mi East 5.8 mph - N/A   Clear
6:55 AM 48.9 °F - 37.9 °F 66% 30.03 in 10.0 mi ENE 5.8 mph - N/A   Clear
7:55 AM 55.9 °F - 43.0 °F 62% 30.05 in 10.0 mi Calm Calm - N/A   Clear
8:55 AM 64.9 °F - 46.9 °F 52% 30.04 in 10.0 mi Variable 3.5 mph - N/A   Clear
9:55 AM 73.9 °F - 48.0 °F 40% 30.00 in 10.0 mi South 15.0 mph 24.2 mph N/A   Clear
10:55 AM 78.1 °F - 45.0 °F 31% 29.99 in 10.0 mi South 17.3 mph 24.2 mph N/A   Clear
11:55 AM 82.0 °F - 45.0 °F 27% 29.96 in 10.0 mi South 18.4 mph 24.2 mph N/A   Clear
12:55 PM 84.0 °F - 45.0 °F 25% 29.93 in 10.0 mi South 13.8 mph 27.6 mph N/A   Clear
1:55 PM 86.0 °F - 45.0 °F 24% 29.91 in 10.0 mi South 15.0 mph 21.9 mph N/A   Clear
2:55 PM 86.0 °F - 44.1 °F 23% 29.89 in 10.0 mi South 13.8 mph - N/A   Clear
3:55 PM 84.9 °F - 44.1 °F 24% 29.88 in 10.0 mi South 9.2 mph - N/A   Clear
4:55 PM 84.9 °F - 44.1 °F 24% 29.87 in 10.0 mi SSE 10.4 mph - N/A   Clear
5:55 PM 81.0 °F - 44.1 °F 27% 29.88 in 10.0 mi SE 9.2 mph - N/A   Clear
6:55 PM 69.1 °F - 42.1 °F 38% 29.89 in 10.0 mi East 6.9 mph - N/A   Clear
7:55 PM 66.0 °F - 41.0 °F 40% 29.90 in 10.0 mi East 8.1 mph - N/A   Clear
8:55 PM 68.0 °F - 39.9 °F 36% 29.90 in 10.0 mi East 5.8 mph - N/A   Clear
9:55 PM 66.0 °F - 39.9 °F 38% 29.90 in 10.0 mi East 5.8 mph - N/A   Clear
10:55 PM 66.9 °F - 42.1 °F 40% 29.90 in 10.0 mi SSE 6.9 mph - N/A   Clear
11:55 PM 63.0 °F - 42.1 °F 46% 29.89 in 10.0 mi NE 3.5 mph - N/A   Clear